Regional Weather Roundup
Issued by NWS Kansas City/Pleasant Hill, MO

Home | Current Version | Previous Version | Text Only | Print | Product List | Glossary On
Versions: 1 2 3 4 5 6 7 8 9 10 11 12 13 14 15 16 17 18 19 20 21 22 23 24 25 26 27 28 29 30 31 32 33 34 35 36 37 38 39 40 41 42 43 44 45 46 47 48 49 50
000
ASUS43 KEAX 202211
RWREAX

WEATHER ROUNDUP FOR EASTERN KANSAS AND NORTHWEST MISSOURI
NATIONAL WEATHER SERVICE KANSAS CITY/PLEASANT HILL MO
500 PM CDT SUN APR 20 2014

KSZ040-057-103>105-MOZ028-029-037-043-202300-
...KANSAS CITY METROPOLITAN AREA...

CITY           SKY/WX    TMP DP  RH WIND       PRES   REMARKS
K.C. INTL      CLOUDY    75  54  47 S15       30.01F
K.C. DOWNTOWN  CLOUDY    77  52  41 SW9       30.00F
LEES SUMMIT    CLOUDY    75  51  43 S12       30.03F
OLATHE - IXD   CLOUDY    75  53  46 SW17      30.03F
OLATHE - OJC   CLOUDY    73  52  47 S17       30.02F
LAWRENCE       CLOUDY    77  54  44 S15       30.01F

$$

MOZ001>008-011>017-020>025-030>033-038>040-044>046-053-054-202300-
...NORTHERN AND CENTRAL MISSOURI...

CITY           SKY/WX    TMP DP  RH WIND       PRES   REMARKS
ST. JOSEPH     CLOUDY    76  52  43 S20       29.99F
MOSBY          FAIR      77  50  38 S13       30.01F
WARRENSBURG    CLOUDY   N/A N/A N/A S10       30.04F
WHITEMAN AFB   CLOUDY    74  51  42 SW14      30.04F
CLINTON        CLOUDY    75  54  46 SW8       30.06F
SEDALIA        PTSUNNY   76  51  41 SW13      30.06F
WARSAW         NOT AVBL
MARSHALL         N/A     81  52  36 SW16G22   30.04F
CHILLICOTHE      N/A     77  47  34 S12G20    30.03S
MOBERLY        PTSUNNY   79  46  31 SW10      30.05F
KIRKSVILLE     PTSUNNY   79  48  33 S14G21    30.04F

$$

MOZ041-047>049-056>058-063>065-088>090-097-202300-
...EASTERN AND SOUTHERN MISSOURI...

CITY           SKY/WX    TMP DP  RH WIND       PRES   REMARKS
ST. LOUIS INTL MOSUNNY   82  39  21 SE10      30.06F
SPIRIT OF STL  SUNNY     80  37  21 S7G16     30.04F
COLUMBIA       MOSUNNY   80  49  33 SW14      30.05F
JEFFERSON CITY MOSUNNY   80  46  30 S13       30.04F
MEXICO         MOSUNNY   77  50  38 S7        30.05F
HANNIBAL       MOSUNNY   81  37  21 SW12      30.05S
ROLLA          MOSUNNY   77  50  38 S12       30.06F
LEBANON        CLOUDY    77  45  31 SW6       30.08F
OSAGE BEACH    CLOUDY    79  46  31 S8        30.06F
SPRINGFIELD    PTSUNNY   75  50  41 W7        30.07F
BRANSON        PTSUNNY   75  48  38 SW5       30.09F
NEVADA         CLOUDY    73  54  49 SW12      30.07F
JOPLIN         CLOUDY    74  51  44 SW6       30.07F
WEST PLAINS    CLOUDY    76  46  34 S6        30.10F

$$

IAZ060-094-KSZ022-034>040-054-083-096-NEZ052-066-093-202300-
...KANSAS...SOUTHEAST NEBRASKA AND IOWA...

CITY           SKY/WX    TMP DP  RH WIND       PRES   REMARKS
TOPEKA         CLOUDY    77  53  43 SW17      30.00F
MANHATTAN      CLOUDY    70  56  61 S15G23    30.00S
EMPORIA        CLOUDY    67  59  75 S9        30.03F
CHANUTE        CLOUDY    72  54  53 S12G21    30.05F
WICHITA        CLOUDY    73  58  59 S15       30.00F
OMAHA          PTSUNNY   83  50  31 S13G20    29.89F
LINCOLN        TSTM      66  58  75 SW26G32   29.99R
FALLS CITY     CLOUDY    78  54  43 S18G28    29.94F
LAMONI         PTSUNNY   79  51  37 S16G23    29.98F
DES MOINES     PTSUNNY   83  52  34 SW12G24   29.94F

$$




USA.gov is the U.S. government's official web portal to all federal, state and local government web resources and services.